Regional Weather Roundup
Issued by NWS Portland, ME

Current Version | Previous Version | Text Only | Print | Product List | Glossary On
Versions: 1 2 3 4 5 6 7 8 9 10 11 12 13 14 15 16 17 18 19 20 21 22 23 24 25 26 27 28 29 30 31 32 33 34 35 36 37 38 39 40 41 42 43 44 45 46 47 48 49 50
000
ASUS41 KGYX 250910
RWRGYX
WEATHER ROUNDUP FOR MAINE AND NEW HAMPSHIRE
NATIONAL WEATHER SERVICE GRAY ME
400 AM EST SUN FEB 25 2018

MEZ002-005-006-010-012-015-018-020-021-024-026-027-029-251000-
MAINE

CITY           SKY/WX    TMP DP  RH WIND       PRES   REMARKS
PORTLAND       FAIR      31  23  72 NE12      30.36S
SANFORD        FAIR      31  23  72 NE12      30.31F
BAR HARBOR     FAIR      28  17  63 NE5       30.38S
WISCASSET      FAIR      25  22  88 CALM      30.38R
ROCKLAND       FAIR      31  19  61 NE10      30.38R
FRYEBURG       FAIR      23  23 100 CALM      30.33F
LEWISTONAUBURN FAIR      24  21  88 CALM      30.36S
AUGUSTA        FAIR      28  17  63 NE6       30.36S
WATERVILLE     FAIR      27  17  66 NE5       30.31S
BANGOR         FAIR      26  12  55 NE6       30.38R
GREENVILLE       N/A     17   5  59 CALM      30.25F
MILLINOCKET    FAIR      20   3  48 NE7       30.39S
HOULTON        FAIR      13   3  64 CALM      30.37S
PRESQUE ISLE   FAIR       7   2  80 CALM      30.40S
FRENCHVILLE    FAIR       8   0  69 NE7       30.35S
CARIBOU        FAIR      10   0  63 N6        30.38S
$$

NHZ002-005-008-009-011-012-014-251000-
NEW HAMPSHIRE

CITY           SKY/WX    TMP DP  RH WIND       PRES   REMARKS
PORTSMOUTH     CLOUDY    35  22  60 NE12G18   30.28F
ROCHESTER      FAIR      32  22  66 NE8       30.29F
NASHUA         MOCLDY    32  27  81 CALM      30.30F
MANCHESTER     CLOUDY    34  23  64 NE5       30.29F
CONCORD        FAIR      32  24  72 CALM      30.29F
LACONIA        FAIR      31  23  72 NE15G21   30.28F
PLYMOUTH       FAIR      25  24  96 CALM      30.28F
BERLIN         FAIR      22  19  89 CALM      30.26S
WHITEFIELD     FAIR      30  20  66 VRB3      30.24S
JAFFREY        FAIR      33  25  72 CALM      30.26R
KEENE          MOCLDY    32  26  78 NE5       30.27R
LEBANON        FAIR      29  27  92 CALM      30.25F
MT WASHINGTON  PTCLDY    16   3  57 S14         N/A  WCI   1
$$

VTZ005-007-008-251000-
VERMONT

CITY           SKY/WX    TMP DP  RH WIND       PRES   REMARKS
ST JOHNSBURY     N/A     25  24  96 MISG      30.24F
MONTPELIER     FAIR      25  25 100 CALM      30.25F
BURLINGTON     FAIR      30  24  78 E3        30.20F
$$

MAZ007-012-024-CTZ003-RIZ002-NYZ038-NYZ072-251000-
SOUTHERN NEW ENGLAND AND NY

CITY           SKY/WX    TMP DP  RH WIND       PRES   REMARKS
BOSTON         CLOUDY    39  31  72 E17       30.29F
WORCESTER      CLOUDY    33  26  75 NE12      30.22F
NANTUCKET      CLOUDY    42  39  89 E12       30.26F
PROVIDENCE     CLOUDY    41  34  76 NE12      30.26F
HARTFORD       LGT RAIN  39  32  76 N6        30.24R
ALBANY         LGT RAIN  33  26  75 CALM      30.19F
NEW YORK CITY  RAIN      42  38  85 NE7       30.17R
$$

ANZ081-ANZ082-ANZ150-NHZ014-MEZ023>029-251000-
COASTAL MARINE OBSERVATIONS

STATION/POSITION TIME  TEMP    WIND        PRES    WAVE
                       AIR SEA DIR/SP/G            HT/PER
                 (UTC) (F)     (DEG/KT/KT) (MB)    (FT/S)
MOUNT DESERT ROC 0900   34      30/ 20/ 22 1028.1R
MATINICUS ROCK   0900   34      60/ 20/ 22 1027.4S
ISLE OF SHOALS   0900   36      60/ 22/ 24 1025.0F
JEFFREYS LEDGE   0836      41                N/A     5/ 5
GEORGES BANK BUO 0750   38 56              1015.4   17/ 9
$$

.............KEY..............
   WCI - WIND CHILL
   TC  - TEMPERATURE IN CELSIUS
   VSB - VISIBILITY IN MILES
   HX  - HEAT INDEX
   FAIR- INDICATES FEW OR NO CLOUDS BELOW 12,000 FT, WITH NO
         SIGNIFICANT WEATHER AND/OR OBSTRUCTIONS TO VISIBILITY.






USA.gov is the U.S. government's official web portal to all federal, state and local government web resources and services.